Location: Sternwarte_Laufen
(47.9344°N, 12.9346°E)
Time: 04:37:49
(UTC+02:00)

ISS - Pass Details

Date: 08 July 2025
Orbit: 413 x 417 km, 51.6° (Epoch: 12 July)

Event Time Altitude Azimuth Distance (km) Brightness Sun altitude
Rises 04:26:35 0° 291° (WNW) 2,360 -0.2 -7.4°
Reaches altitude 10° 04:28:47 10° 283° (WNW) 1,495 -1.3 -7.1°
Maximum altitude 04:31:54 37° 215° (SW) 671 -3.2 -6.7°
Drops below altitude 10° 04:35:00 10° 146° (SE) 1,489 -1.1 -6.4°
Sets 04:37:11 0° 138° (SE) 2,349 0.0 -6.1°
